Regional Weather Roundup
Issued by NWS Sterling, VA

Home | Current Version | Previous Version | Graphics & Text | Print | Product List | Glossary On
Versions: 1 2 3 4 5 6 7 8 9 10 11 12 13 14 15 16 17 18 19 20 21 22 23 24 25 26 27 28 29 30 31 32 33 34 35 36 37 38 39 40 41 42 43 44 45 46 47 48 49 50
000
ASUS41 KLWX 291510
RWRLWX

REGIONAL WEATHER ROUNDUP
NATIONAL WEATHER SERVICE BALTIMORE MD/WASHINGTON DC
1100 AM EDT SAT AUG 29 2015

Note: "FAIR" indicates few or no clouds below 12,000 feet
with no significant weather and/or obstructions to visibility.
 TC=TEMPERATURE CELSIUS

 * =Non NWS site. Station does not report precipitation (e.g. rain,
    snow, etc.), thunder, or fog.

DCZ001-MDZ009-015-VAZ040>042-051-053>054-291600-
WASHINGTON METRO

CITY           SKY/WX    TMP DP  RH WIND       PRES   REMARKS
WASHINGTON NAT PTSUNNY   81  61  50 S13       30.22S
DULLES         MOSUNNY   77  62  59 S8        30.21S
ANDREWS AFB    SUNNY     82  59  45 S12       30.21F
FT BELVOIR     SUNNY     79  61  52 S8        30.21F
QUANTICO       MOSUNNY   77  61  57 SW14      30.23S
COLLEGE PARK*  SUNNY     81  57  44 SW6       30.21F
LEESBURG*      SUNNY     79  68  69 S3        30.23S
MANASSAS*      SUNNY     79  63  57 MISG      30.21F
GAITHERSBURG*  SUNNY     79  61  53 S3        30.26S

$$

MDZ006>007-011-014-291600-
BALTIMORE METRO

CITY           SKY/WX    TMP DP  RH WIND       PRES   REMARKS
BWI AIRPORT    MOSUNNY   79  61  53 S6        30.21S
MD SCIENCE CTR   N/A     80  59  48 MISG      30.22S
MARTIN STATE   MOSUNNY   81  66  61 SE6       30.23S
ANNAPOLIS      SUNNY     79  59  50 SW7       30.22R
FORT MEADE*    SUNNY     77  61  57 SW7       30.24S

$$

MDZ012-015-019>023-291600-
MARYLAND EASTERN SHORE

CITY           SKY/WX    TMP DP  RH WIND       PRES   REMARKS
OCEAN CITY     SUNNY     79  59  50 SE7       30.24S
SALISBURY      SUNNY     79  60  52 SE5       30.24R
BAY BRIDGE AP*   N/A     79  57  47 S6        30.23R
CAMBRIDGE*     SUNNY     79  63  57 SW5       30.23S
EASTON*        SUNNY     81  64  57 SW9       30.26S

$$

MDZ017>025-291600-
SOUTHERN MARYLAND

CITY           SKY/WX    TMP DP  RH WIND       PRES   REMARKS
PATUXENT RIVER PTSUNNY   79  62  56 S5        30.23S
ST INIGOES     SUNNY     78  66  66 SW5       30.23S
LEONARDTOWN*   SUNNY     77  59  53 CALM      30.25S

$$

MDZ003>005-291600-
NORTH CENTRAL MARYLAND

CITY           SKY/WX    TMP DP  RH WIND       PRES   REMARKS
FREDERICK*     SUNNY     79  64  61 SE3       30.24R
HAGERSTOWN APT SUNNY     76  61  59 VRB6      30.22R
WESTMINSTER*   MOSUNNY   77  61  57 SW8       30.23R

$$

MDZ501>502-291600-
WESTERN MARYLAND

CITY           SKY/WX    TMP DP  RH WIND       PRES   REMARKS
OAKLAND*       SUNNY     70  59  68 W6        30.30R
CUMBERLAND*    SUNNY     73  61  64 CALM      30.26S

$$

VAZ025>031-291600-
SHENANDOAH VALLEY

CITY           SKY/WX    TMP DP  RH WIND       PRES   REMARKS
WINCHESTER*    SUNNY     82  59  44 S9        30.21R
FRONT ROYAL*   FAIR      79  61  53 SW7       30.20S
LURAY*         FAIR      81  59  47 S9        30.22S
NEW MARKET*    FAIR      80  62  55 CALM      30.21S
STAUNTON*      SUNNY     81  60  48 S5        30.26S
WAYNESBORO*    FAIR      81  59  47 W6        30.25S

$$

WVZ021-048>050-054>055-291600-
EASTERN WEST VIRGINIA PANHANDLE

CITY           SKY/WX    TMP DP  RH WIND       PRES   REMARKS
MARTINSBURG    SUNNY     77  62  59 W3        30.22S
PETERSBURG*    SUNNY     76  63  63 CALM      30.22S

$$

VAZ036>039-050-291600-
CENTRAL FOOTHILLS

CITY           SKY/WX    TMP DP  RH WIND       PRES   REMARKS
CHARLOTTESVILL MOSUNNY   75  63  66 S7        30.23R
CULPEPER*      MOSUNNY   77  63  63 S7        30.22S
ORANGE*        MOSUNNY   81  63  54 S8        30.23F
GORDONSVILLE*  FAIR      78  63  58 SW10      30.22S
WARRENTON*     FAIR      81  65  59 S9        30.22R

$$

VAZ055>057-291600-
NORTH AND CENTRAL PIEDMONT

CITY           SKY/WX    TMP DP  RH WIND       PRES   REMARKS
FREDERICKSBRG* SUNNY     82  60  46 S9        30.22S
STAFFORD*      SUNNY     80  59  48 S10       30.26S

$$

NCZ024-NYZ072-PAZ021-071-VAZ022-071-291600-
OTHER REGIONAL OBSERVATIONS

CITY           SKY/WX    TMP DP  RH WIND       PRES   REMARKS
NEW YORK CITY  SUNNY     79  53  40 CALM      30.24S
PHILADELPHIA   MOSUNNY   80  59  48 W8        30.23S
PITTSBURGH     PTSUNNY   74  58  57 VRB3      30.21R
ROANOKE        PTSUNNY   73  60  63 CALM      30.28R
RICHMOND       PTSUNNY   81  61  50 SE5       30.24S
RALEIGH        PTSUNNY   79  61  53 E5        30.25R

$$

ANZ530>537-291600-
MARINE OBSERVATIONS

STATION/POSITION TIME  TEMP    WIND        PRES
                       AIR SEA DIR/SP/G
                 (UTC) (F)     (DEG/KT/KT) (MB)
THOMAS PT LIGHT  NOT AVBL

$$



USA.gov is the U.S. government's official web portal to all federal, state and local government web resources and services.